Wind_Speed
48 49 45 47 53 52 53 51 51 52 52 54 55 57 58 57 57 57 55 51 48 49 49 46 45 46 46 46 46 44 43 42 43 40 39 45 56 65 73 83 93 94 91
51 55 56 53 53 54 53 52 53 54 55 57 61 62 62 61 61 59 58 55 54 54 54 54 54 53 52 52 50 48 47 47 47 45 45 43 50 58 66 72 76 87 96
57 59 57 56 56 57 56 57 56 55 57 59 62 65 66 66 66 64 64 65 65 64 61 59 59 60 59 58 57 56 54 52 50 52 50 51 49 51 61 68 66 76 88
64 63 60 59 60 60 62 62 60 61 63 65 66 68 68 69 70 70 70 70 68 67 68 69 68 67 67 67 67 65 63 61 58 55 57 56 57 55 55 62 69 66 75
67 67 66 65 66 66 65 65 67 68 70 72 73 73 73 73 74 75 77 78 78 77 77 77 78 78 77 76 75 74 73 71 68 64 61 61 62 61 61 61 62 67 70
69 70 69 69 69 70 71 73 74 76 76 76 76 76 78 82 83 84 86 85 87 87 88 87 87 88 86 86 86 84 82 80 78 75 71 68 66 68 67 65 65 66 71
73 73 71 74 74 75 77 79 81 83 85 87 85 84 85 87 88 90 91 93 96 99 99 99 98 95 94 95 94 94 95 89 87 86 82 77 76 73 72 70 69 68 69
74 74 76 77 79 81 85 88 90 91 93 94 94 93 91 93 97 100 102 103 103 103 104 105 106 106 108 107 106 104 103 102 97 92 91 87 84 81 79 77 76 74 72
78 79 82 83 85 88 91 95 98 101 103 103 102 103 102 102 104 108 112 111 112 113 114 114 115 117 118 117 116 115 113 111 109 105 100 97 94 91 88 84 83 83 79
82 85 87 89 91 96 100 103 108 112 112 112 113 116 117 116 114 107 112 115 116 119 121 120 121 122 123 124 122 124 121 119 119 115 112 106 102 101 97 94 89 88 87
89 91 94 97 102 106 110 115 118 119 120 122 124 124 124 123 121 118 112 115 117 122 125 126 126 124 120 118 116 117 120 124 124 122 120 118 113 110 110 102 99 96 94
92 95 100 105 109 114 117 121 124 126 127 126 124 125 124 123 121 121 120 117 116 118 120 119 118 118 115 111 107 105 106 112 120 125 126 123 124 119 118 114 109 103 99
96 101 106 110 115 120 122 125 128 129 128 125 124 123 124 126 125 122 116 109 103 102 105 108 102 101 100 102 103 103 100 102 108 111 117 123 122 125 128 121 115 111 108
103 107 112 117 120 121 122 122 123 122 122 123 122 122 124 122 116 110 104 96 90 86 91 96 96 92 92 92 93 95 97 99 100 104 108 114 118 122 127 121 115 118 119
110 114 116 117 120 120 119 116 117 118 119 117 116 114 107 102 97 94 90 86 82 78 79 85 89 90 88 89 89 90 92 95 99 101 105 107 111 113 117 111 117 122 122
114 118 119 120 118 117 115 113 115 117 115 111 106 102 97 93 90 86 81 78 75 71 68 75 81 81 79 80 82 85 89 92 95 99 102 105 109 111 113 115 113 117 120
121 122 123 124 125 119 117 119 117 112 108 103 98 93 89 84 81 78 75 71 68 66 62 67 71 74 72 71 73 75 80 85 90 95 99 103 105 109 111 113 113 114 109
126 129 129 128 124 119 115 111 108 103 99 94 88 83 80 75 72 70 68 66 63 61 56 58 65 68 67 65 65 66 71 76 82 88 95 99 103 108 112 111 111 111 111
132 131 125 119 118 111 107 102 96 91 87 82 78 74 71 69 67 65 64 63 61 58 54 51 58 60 63 62 61 61 64 70 75 79 86 93 99 106 110 109 108 112 106
123 120 115 110 105 100 96 91 86 82 78 75 72 68 66 65 64 63 60 59 57 55 52 49 52 56 57 59 57 56 57 63 68 72 79 84 89 98 104 107 108 112 106
113 111 107 100 96 91 87 83 79 76 73 70 67 64 63 62 59 57 55 54 53 51 49 46 48 51 53 55 54 53 53 55 63 67 72 77 81 86 94 100 105 108 106
111 107 100 93 89 85 81 77 74 72 69 67 64 61 60 58 56 54 51 49 49 48 46 43 44 45 47 48 48 50 53 55 61 62 65 70 74 81 85 90 96 101 104
105 98 92 87 83 78 74 71 69 68 67 64 60 58 58 56 53 50 47 44 43 44 46 44 43 41 43 39 40 47 50 52 56 58 62 65 67 73 77 81 86 89 94
99 92 85 80 76 73 70 68 66 64 62 60 58 57 56 55 51 47 44 41 40 38 41 41 39 36 39 38 40 42 45 48 49 50 54 59 61 64 66 72 77 82 88
92 85 81 75 72 69 66 64 62 61 60 58 55 52 50 48 46 43 39 37 34 34 33 33 33 32 35 37 38 40 40 43 42 42 50 56 54 59 63 67 70 74 79
86 80 75 70 67 65 62 59 58 59 57 53 49 45 42 40 39 37 35 33 30 29 28 27 27 29 30 32 36 36 38 38 38 40 48 50 49 55 59 61 64 67 72
Wind_Direction
294 303 301 298 302 303 301 299 298 296 294 292 293 293 292 290 288 290 288 286 286 288 288 288 284 282 282 277 271 265 263 259 260 254 254 246 240 236 233 237 236 232 234
293 298 297 298 299 300 300 298 297 296 294 294 294 292 292 292 291 290 287 281 280 286 284 285 286 283 282 281 279 273 266 261 255 254 251 248 244 239 236 235 237 235 237
291 292 291 293 296 296 294 293 292 291 291 291 291 290 289 290 289 287 287 286 281 282 281 279 277 277 278 278 277 275 273 268 260 252 247 245 241 244 241 238 239 231 231
293 294 296 295 294 295 294 293 292 291 289 288 286 285 284 284 285 285 284 282 281 281 281 281 281 280 277 275 275 273 270 267 265 261 252 247 243 239 239 242 239 237 236
294 297 297 296 296 295 296 296 296 295 293 292 288 285 284 282 281 281 280 281 280 280 279 279 279 278 278 276 274 273 271 268 266 263 260 252 245 243 243 240 239 240 237
293 295 292 294 293 295 297 297 297 296 295 294 291 287 285 285 285 284 283 281 280 281 280 278 277 276 275 277 276 272 269 269 267 263 259 256 252 244 241 243 244 239 238
294 292 289 290 290 292 292 292 293 293 293 291 287 284 283 282 282 282 282 282 282 281 279 278 275 274 274 272 273 273 270 265 264 263 260 255 254 250 244 242 241 242 239
289 287 288 288 287 287 289 290 290 290 292 291 290 288 286 286 286 284 283 281 281 279 278 276 275 272 271 271 271 270 270 268 262 260 259 255 252 250 248 245 242 240 240
289 289 289 289 289 289 290 290 292 293 293 292 292 291 291 290 290 290 288 285 284 280 277 274 272 269 268 266 266 265 265 264 262 259 256 254 251 250 246 245 243 240 239
289 289 289 288 287 290 294 296 296 296 296 296 296 296 295 294 291 286 285 283 280 279 276 273 270 266 263 260 259 259 258 258 256 256 255 252 250 249 247 243 242 240 238
296 296 298 299 297 296 296 297 300 301 300 300 298 296 294 292 288 283 277 275 274 272 270 269 268 267 266 265 261 258 255 252 251 250 251 252 249 247 245 242 241 240 238
297 297 296 296 296 298 299 301 302 302 301 298 295 294 290 287 284 283 282 280 278 274 272 270 268 267 267 265 263 259 256 253 252 250 249 249 248 246 244 241 239 238 237
296 296 296 297 298 299 301 301 300 299 297 294 292 289 288 287 287 287 287 284 280 277 275 273 270 267 264 262 260 257 253 251 250 249 248 248 248 246 246 242 237 237 236
297 297 297 299 300 300 300 301 299 296 291 289 288 287 286 288 288 287 285 283 280 276 274 273 270 265 261 258 255 253 251 249 246 246 244 244 244 245 245 244 242 238 235
297 298 300 302 303 303 301 298 295 291 289 290 289 290 291 290 289 287 285 284 281 276 272 269 266 263 260 257 254 251 249 246 245 243 243 243 243 242 243 242 241 239 236
302 304 305 306 306 304 301 300 299 297 298 297 297 296 294 292 291 289 287 284 281 277 272 268 266 264 260 257 255 251 249 246 243 242 240 240 241 241 242 241 239 238 236
307 308 309 310 310 308 307 305 302 301 299 299 297 297 294 292 291 289 288 285 281 276 272 269 266 265 262 258 254 251 248 245 243 241 239 239 238 239 240 240 239 238 235
310 311 312 311 309 308 305 302 301 301 299 298 297 295 293 292 291 289 286 284 281 278 273 268 266 265 263 260 256 251 248 246 243 241 239 238 237 238 239 240 240 240 237
309 310 310 309 308 307 304 303 301 299 299 297 297 296 296 295 292 290 287 285 282 279 274 267 265 262 262 260 255 251 247 245 243 241 239 237 237 237 239 240 239 240 239
309 309 310 310 307 306 304 303 302 301 301 301 301 300 298 294 292 290 288 285 282 279 274 268 262 260 257 256 254 250 246 244 244 241 240 238 236 236 237 239 238 239 239
311 313 312 310 308 307 307 305 304 304 303 303 301 300 297 295 293 292 290 286 282 279 274 268 262 259 254 252 251 248 243 239 240 238 238 238 236 236 236 236 237 239 240
316 315 314 311 310 309 308 307 307 305 305 304 303 301 299 297 295 293 289 285 283 280 275 269 264 258 256 251 247 246 242 236 237 237 235 235 235 235 235 234 235 236 237
317 316 314 313 311 310 309 309 309 307 306 306 305 304 302 300 297 294 291 286 280 276 275 270 265 262 259 256 248 244 243 239 238 237 236 235 233 233 233 234 234 235 235
317 315 314 313 312 312 312 311 310 309 307 307 306 304 301 300 298 296 291 286 282 277 272 273 271 264 259 253 248 246 243 242 241 239 240 238 234 234 232 233 233 232 233
317 316 316 315 314 313 313 313 311 309 308 307 305 303 301 299 298 296 294 290 285 280 275 270 266 260 254 250 248 246 245 243 241 239 238 239 233 233 231 231 232 232 233
317 317 316 316 315 315 314 312 312 311 310 309 307 306 304 302 300 299 297 294 289 283 278 272 265 258 252 248 245 243 242 242 238 234 234 238 234 232 232 232 232 233 233
Height
10647 10645 10642 10638 10633 10630 10627 10625 10622 10619 10615 10612 10609 10604 10601 10599 10598 10596 10593 10590 10589 10587 10587 10587 10587 10588 10588 10589 10590 10591 10592 10592 10593 10596 10598 10599 10602 10606 10614 10618 10624 10629 10639
10638 10636 10633 10630 10626 10623 10619 10616 10613 10608 10604 10600 10595 10591 10586 10582 10580 10578 10579 10579 10578 10576 10574 10572 10572 10573 10574 10575 10577 10578 10580 10581 10581 10583 10587 10590 10591 10594 10599 10605 10609 10614 10621
10630 10627 10624 10620 10617 10614 10611 10607 10603 10599 10594 10589 10585 10578 10573 10569 10564 10562 10562 10560 10559 10560 10561 10560 10559 10557 10557 10559 10561 10563 10565 10567 10569 10570 10571 10575 10579 10583 10586 10589 10596 10599 10604
10618 10613 10609 10606 10603 10600 10597 10594 10590 10586 10582 10579 10572 10566 10561 10556 10551 10548 10545 10544 10545 10543 10541 10539 10540 10542 10542 10541 10543 10545 10547 10550 10554 10556 10559 10562 10565 10568 10571 10575 10579 10582 10586
10604 10597 10592 10589 10586 10583 10581 10576 10572 10569 10565 10562 10557 10552 10546 10540 10537 10534 10529 10525 10523 10524 10523 10521 10519 10518 10520 10523 10525 10526 10528 10531 10535 10539 10543 10546 10549 10553 10557 10560 10564 10569 10573
10592 10586 10580 10574 10569 10565 10561 10556 10551 10545 10543 10541 10537 10533 10526 10519 10516 10512 10508 10506 10501 10500 10500 10499 10497 10496 10496 10497 10499 10503 10507 10509 10513 10518 10522 10527 10532 10536 10538 10543 10549 10552 10557
10578 10573 10567 10562 10556 10551 10545 10540 10535 10530 10524 10521 10520 10516 10509 10503 10497 10491 10486 10484 10481 10476 10473 10472 10473 10474 10473 10473 10474 10474 10477 10484 10487 10492 10499 10504 10510 10517 10522 10526 10530 10537 10544
10563 10556 10551 10546 10540 10533 10527 10521 10515 10509 10502 10495 10489 10486 10487 10479 10468 10461 10457 10452 10450 10445 10441 10441 10442 10442 10442 10441 10442 10444 10446 10448 10458 10465 10469 10476 10484 10490 10498 10506 10513 10518 10526
10543 10537 10531 10524 10518 10511 10503 10495 10486 10479 10472 10464 10458 10450 10449 10449 10444 10432 10419 10411 10407 10403 10400 10400 10402 10403 10403 10403 10405 10406 10411 10415 10419 10429 10437 10445 10454 10461 10471 10480 10490 10499 10506
10525 10517 10509 10501 10494 10485 10474 10462 10451 10443 10434 10428 10418 10408 10399 10395 10396 10402 10390 10378 10369 10357 10352 10351 10352 10351 10352 10356 10360 10364 10370 10376 10382 10390 10400 10410 10423 10428 10439 10451 10461 10471 10483
10498 10488 10479 10469 10458 10449 10439 10428 10416 10404 10395 10385 10376 10368 10360 10350 10342 10338 10346 10335 10327 10315 10306 10301 10298 10299 10304 10308 10316 10321 10326 10332 10340 10349 10363 10371 10386 10396 10401 10416 10430 10442 10455
10476 10468 10458 10446 10433 10422 10410 10396 10381 10369 10357 10344 10332 10321 10312 10302 10294 10284 10283 10286 10278 10269 10257 10253 10256 10258 10260 10264 10269 10276 10287 10294 10298 10311 10321 10334 10345 10357 10365 10380 10395 10410 10423
10459 10448 10436 10422 10408 10393 10380 10367 10351 10335 10319 10305 10292 10279 10266 10255 10246 10238 10235 10237 10235 10226 10213 10206 10211 10215 10219 10222 10225 10234 10246 10254 10262 10269 10282 10292 10309 10319 10322 10339 10362 10379 10390
10438 10425 10411 10398 10385 10370 10355 10340 10319 10298 10281 10266 10255 10241 10228 10216 10207 10199 10190 10190 10193 10191 10181 10168 10167 10173 10178 10182 10189 10196 10205 10214 10225 10233 10244 10253 10266 10279 10282 10301 10329 10343 10354
10415 10401 10387 10373 10355 10338 10319 10301 10281 10262 10244 10231 10216 10202 10191 10182 10171 10164 10156 10153 10152 10156 10150 10139 10132 10134 10143 10149 10156 10163 10171 10181 10190 10201 10209 10219 10230 10243 10249 10271 10285 10299 10319
10388 10371 10354 10336 10316 10296 10276 10258 10237 10216 10205 10189 10177 10165 10154 10146 10136 10129 10126 10122 10118 10120 10122 10110 10100 10104 10113 10119 10125 10133 10139 10149 10158 10168 10178 10188 10198 10209 10219 10231 10248 10264 10281
10354 10335 10315 10294 10271 10254 10235 10214 10195 10179 10166 10156 10145 10133 10123 10115 10107 10100 10097 10094 10090 10088 10092 10083 10078 10074 10082 10090 10096 10104 10108 10117 10126 10135 10146 10157 10167 10177 10188 10198 10215 10229 10252
10319 10299 10280 10258 10235 10216 10199 10180 10163 10151 10137 10126 10117 10108 10097 10090 10083 10077 10071 10066 10064 10062 10066 10064 10055 10052 10057 10063 10070 10077 10083 10089 10096 10105 10114 10128 10138 10145 10153 10168 10183 10200 10215
10286 10267 10251 10230 10202 10183 10165 10149 10136 10124 10113 10102 10092 10083 10075 10066 10058 10053 10047 10043 10039 10039 10041 10043 10035 10036 10036 10039 10047 10054 10060 10062 10070 10078 10086 10098 10110 10119 10127 10142 10160 10168 10189
10258 10239 10216 10197 10174 10157 10139 10124 10110 10098 10088 10077 10068 10060 10052 10044 10037 10030 10026 10022 10018 10017 10018 10020 10018 10016 10018 10018 10024 10032 10039 10043 10048 10055 10062 10072 10083 10092 10103 10116 10135 10141 10156
10228 10204 10184 10165 10145 10130 10114 10100 10086 10075 10065 10055 10047 10041 10032 10024 10018 10012 10007 10002 9998 9997 9997 9998 9998 9997 9998 10002 10007 10013 10018 10024 10025 10032 10039 10048 10060 10072 10081 10090 10104 10114 10129
10194 10173 10154 10137 10119 10104 10091 10078 10066 10053 10044 10036 10028 10020 10011 10005 9999 9994 9990 9986 9982 9979 9977 9979 9978 9979 9980 9985 9992 9996 9998 10003 10006 10016 10022 10031 10040 10048 10057 10069 10080 10092 10105
10166 10146 10129 10114 10098 10084 10072 10059 10047 10036 10025 10017 10009 10000 9991 9986 9981 9977 9973 9970 9967 9963 9959 9960 9961 9964 9965 9973 9977 9978 9982 9986 9990 9999 10004 10011 10021 10028 10039 10050 10061 10073 10083
10140 10124 10109 10094 10079 10066 10053 10041 10030 10020 10009 10001 9993 9985 9976 9969 9964 9961 9957 9953 9951 9949 9946 9946 9948 9951 9952 9957 9960 9964 9968 9972 9978 9986 9989 9993 10005 10012 10024 10032 10041 10052 10061
10120 10103 10088 10074 10061 10049 10038 10025 10015 10005 9995 9988 9980 9972 9964 9957 9951 9946 9943 9939 9937 9935 9934 9934 9935 9936 9938 9942 9946 9950 9956 9959 9966 9974 9974 9975 9990 9995 10003 10012 10021 10031 10042
10100 10085 10072 10058 10045 10034 10024 10014 10003 9991 9980 9974 9966 9959 9952 9946 9940 9935 9930 9927 9925 9923 9922 9922 9923 9925 9927 9930 9933 9939 9943 9948 9954 9959 9959 9964 9976 9981 9989 9998 10007 10016 10024